Powrót do katalogu

STARLINK-32757

AktywnyŁącznośćVLEO
NORAD 62492·PAYLOAD·🇺🇸 United States

Wystrzelony Jan 6, 2025 z Cape Canaveral Space Force Station

Loading…

Następne Przeloty (najbliższe 24 godziny)

TLE

ŚwieżeSource: CelesTrak SupGP

Epoka: Sep 15, 2026, 02:22 UTC

1 62492C 25003F   26258.09909722  .00026148  00000+0  94708-3 0  2583
2 62492  43.0007 299.4871 0001400 262.2406 216.0062 15.27565420    11

Śledź STARLINK-32757 w czasie rzeczywistym z AllMySat

Download on the App Store